| time (UTC) | temp C | wind direction | speed KPH | gust KPH | rain 1hr cm | rain 24hr cm | rain mn cm | humidity % | barometer mb |
| 20260504081803 | 10 | 206 | 8.0 | 11.3 | 0.00 | 0.00 | 0.00 | 77 | 1004.5 |
| 20260504080903 | 10 | 217 | 11.3 | 12.9 | 0.00 | 0.00 | 0.00 | 77 | 1004.3 |
| 20260504080218 | 10 | 224 | 11.3 | 12.9 | 0.00 | 0.00 | 0.00 | 77 | 1004.5 |
| 20260504050217 | 8 | 135 | 4.8 | 6.4 | 0.00 | 0.00 | 0.00 | 90 | 1005.7 |
| 20260504045403 | 8 | 123 | 3.2 | 3.2 | 0.00 | 0.00 | 0.00 | 92 | 1005.9 |
| 20260504044504 | 8 | 89 | 3.2 | 4.8 | 0.00 | 0.00 | 0.00 | 92 | 1006.0 |
| 20260504043603 | 8 | 78 | 1.6 | 3.2 | 0.00 | 0.00 | 0.00 | 93 | 1006.1 |
| 20260504042703 | 7 | 61 | 4.8 | 4.8 | 0.00 | 0.00 | 0.00 | 94 | 1006.2 |
| 20260504041803 | 7 | 45 | 1.6 | 4.8 | 0.00 | 0.00 | 0.00 | 94 | 1006.3 |
| 20260504041117 | 7 | 0 | 0.0 | 0.0 | 0.00 | 0.00 | 0.00 | 94 | 1006.3 |
| 20260504040217 | 6 | 0 | 0.0 | 0.0 | 0.00 | 0.00 | 0.00 | 96 | 1006.5 |
| 20260504035403 | 5 | 0 | 0.0 | 0.0 | 0.00 | 0.00 | 0.00 | 96 | 1006.8 |
| 20260504034503 | 5 | 188 | 1.6 | 3.2 | 0.00 | 0.00 | 0.00 | 95 | 1006.8 |
| 20260504033817 | 5 | 184 | 3.2 | 3.2 | 0.00 | 0.00 | 0.00 | 95 | 1006.9 |
| 20260504032916 | 5 | 180 | 3.2 | 3.2 | 0.00 | 0.00 | 0.00 | 95 | 1006.8 |
| 20260504031803 | 4 | 184 | 0.0 | 3.2 | 0.00 | 0.00 | 0.00 | 95 | 1006.8 |
| 20260504030903 | 4 | 97 | 1.6 | 3.2 | 0.00 | 0.00 | 0.00 | 95 | 1006.7 |
| 20260504030003 | 4 | 62 | 3.2 | 3.2 | 0.00 | 0.00 | 0.00 | 95 | 1006.8 |
| 20260504025618 | 4 | 52 | 3.2 | 3.2 | 0.00 | 0.00 | 0.00 | 95 | 1006.8 |
| 20260504024503 | 4 | 45 | 3.2 | 3.2 | 0.00 | 0.00 | 0.00 | 95 | 1006.9 |
| 20260504023603 | 5 | 22 | 3.2 | 4.8 | 0.00 | 0.00 | 0.00 | 94 | 1006.9 |
| 20260504022703 | 5 | 37 | 4.8 | 6.4 | 0.00 | 0.00 | 0.00 | 93 | 1007.0 |
| 20260504021803 | 5 | 16 | 1.6 | 3.2 | 0.00 | 0.00 | 0.00 | 93 | 1007.0 |
| 20260504021117 | 5 | 360 | 0.0 | 3.2 | 0.00 | 0.00 | 0.00 | 93 | 1007.2 |
| 20260504020004 | 5 | 360 | 0.0 | 1.6 | 0.00 | 0.00 | 0.00 | 93 | 1007.4 |
| 20260504015618 | 5 | 360 | 0.0 | 3.2 | 0.00 | 0.00 | 0.00 | 93 | 1007.5 |
| 20260504014503 | 5 | 360 | 3.2 | 3.2 | 0.00 | 0.00 | 0.00 | 93 | 1007.4 |
| 20260504013603 | 5 | 360 | 0.0 | 1.6 | 0.00 | 0.00 | 0.00 | 93 | 1007.5 |
| 20260504012703 | 5 | 360 | 0.0 | 3.2 | 0.00 | 0.00 | 0.00 | 93 | 1007.5 |
| 20260504011803 | 5 | 345 | 1.6 | 3.2 | 0.00 | 0.00 | 0.00 | 93 | 1007.6 |
| 20260504010904 | 5 | 0 | 0.0 | 0.0 | 0.00 | 0.00 | 0.00 | 92 | 1007.7 |
| 20260504010003 | 6 | 360 | 0.0 | 1.6 | 0.00 | 0.00 | 0.00 | 92 | 1007.6 |
| 20260504005403 | 6 | 360 | 1.6 | 3.2 | 0.00 | 0.00 | 0.00 | 92 | 1007.6 |
| 20260504004503 | 6 | 323 | 3.2 | 3.2 | 0.00 | 0.00 | 0.00 | 91 | 1007.8 |
| 20260504003603 | 6 | 315 | 3.2 | 3.2 | 0.00 | 0.00 | 0.00 | 92 | 1007.7 |
| 20260504002703 | 6 | 332 | 1.6 | 3.2 | 0.00 | 0.00 | 0.00 | 92 | 1007.8 |
| 20260504001803 | 6 | 180 | 1.6 | 3.2 | 0.00 | 0.00 | 0.00 | 91 | 1007.9 |
| 20260504000903 | 6 | 170 | 1.6 | 3.2 | 0.00 | 0.00 | 0.00 | 91 | 1008.0 |
| 20260504000004 | 6 | 135 | 0.0 | 1.6 | 0.00 | 0.00 | 0.00 | 91 | 1008.0 |
| 20260503235403 | 6 | 95 | 1.6 | 3.2 | 0.00 | 0.00 | 0.00 | 91 | 1007.9 |
| 20260503234503 | 6 | 74 | 3.2 | 3.2 | 0.00 | 0.00 | 0.00 | 91 | 1007.9 |
| 20260503233603 | 6 | 60 | 3.2 | 3.2 | 0.00 | 0.00 | 0.00 | 91 | 1008.0 |
| 20260503232703 | 6 | 90 | 0.0 | 3.2 | 0.00 | 0.00 | 0.00 | 91 | 1008.1 |
| 20260503232018 | 6 | 101 | 0.0 | 1.6 | 0.00 | 0.00 | 0.00 | 91 | 1008.1 |
| 20260503231118 | 6 | 90 | 0.0 | 1.6 | 0.00 | 0.00 | 0.00 | 91 | 1008.1 |
| 20260503230003 | 6 | 0 | 0.0 | 0.0 | 0.00 | 0.00 | 0.00 | 91 | 1008.2 |
| 20260503225403 | 6 | 0 | 0.0 | 0.0 | 0.00 | 0.00 | 0.00 | 91 | 1008.3 |
| 20260503224504 | 6 | 0 | 0.0 | 0.0 | 0.00 | 0.00 | 0.00 | 91 | 1008.2 |
| 20260503223817 | 6 | 0 | 0.0 | 0.0 | 0.00 | 0.00 | 0.00 | 91 | 1008.2 |
| 20260503222917 | 6 | 0 | 0.0 | 0.0 | 0.00 | 0.00 | 0.00 | 91 | 1008.4 |
| 20260503221803 | 6 | 0 | 0.0 | 0.0 | 0.00 | 0.00 | 0.00 | 91 | 1008.4 |
| 20260503220903 | 6 | 270 | 0.0 | 1.6 | 0.00 | 0.00 | 0.00 | 90 | 1008.5 |
| 20260503220003 | 6 | 292 | 1.6 | 3.2 | 0.00 | 0.00 | 0.00 | 90 | 1008.5 |
| 20260503215404 | 6 | 315 | 3.2 | 4.8 | 0.00 | 0.00 | 0.00 | 90 | 1008.5 |
| 20260503214503 | 6 | 315 | 4.8 | 4.8 | 0.00 | 0.00 | 0.00 | 89 | 1008.6 |
| 20260503213603 | 6 | 322 | 1.6 | 3.2 | 0.00 | 0.00 | 0.00 | 89 | 1008.4 |
| 20260503212918 | 6 | 18 | 1.6 | 3.2 | 0.00 | 0.00 | 0.00 | 88 | 1008.3 |
| 20260503211804 | 6 | 119 | 3.2 | 6.4 | 0.00 | 0.00 | 0.00 | 88 | 1008.5 |
| 20260503210903 | 6 | 135 | 4.8 | 6.4 | 0.00 | 0.00 | 0.00 | 88 | 1008.2 |
| 20260503210005 | 6 | 135 | 3.2 | 3.2 | 0.00 | 0.00 | 0.00 | 88 | 1008.4 |
| 20260503205618 | 6 | 135 | 3.2 | 4.8 | 0.00 | 0.00 | 0.00 | 88 | 1008.6 |
| 20260503204717 | 6 | 135 | 1.6 | 4.8 | 0.00 | 0.00 | 0.00 | 87 | 1008.4 |
| 20260503203603 | 6 | 0 | 0.0 | 0.0 | 0.00 | 0.00 | 0.00 | 87 | 1008.7 |
| 20260503202918 | 6 | 110 | 1.6 | 3.2 | 0.00 | 0.00 | 0.00 | 87 | 1008.6 |
| 20260503201803 | 6 | 99 | 1.6 | 3.2 | 0.00 | 0.00 | 0.00 | 87 | 1008.5 |
| 20260503201116 | 6 | 164 | 1.6 | 3.2 | 0.00 | 0.00 | 0.00 | 86 | 1008.6 |
| 20260503200003 | 7 | 140 | 3.2 | 3.2 | 0.00 | 0.00 | 0.00 | 84 | 1008.8 |
| 20260503195403 | 7 | 162 | 3.2 | 3.2 | 0.00 | 0.00 | 0.00 | 84 | 1008.7 |
| 20260503194503 | 7 | 225 | 3.2 | 3.2 | 0.00 | 0.00 | 0.00 | 84 | 1008.8 |
| 20260503193603 | 7 | 236 | 3.2 | 4.8 | 0.00 | 0.00 | 0.00 | 84 | 1008.8 |
| 20260503192703 | 7 | 197 | 4.8 | 6.4 | 0.00 | 0.00 | 0.00 | 83 | 1009.0 |
| 20260503191803 | 8 | 196 | 4.8 | 6.4 | 0.00 | 0.00 | 0.00 | 83 | 1008.8 |
| 20260503190903 | 8 | 187 | 6.4 | 8.0 | 0.00 | 0.00 | 0.00 | 83 | 1008.9 |
| 20260503190003 | 8 | 189 | 6.4 | 8.0 | 0.00 | 0.00 | 0.00 | 83 | 1008.9 |
| 20260503185403 | 8 | 202 | 6.4 | 9.7 | 0.00 | 0.00 | 0.00 | 82 | 1009.0 |
| 20260503184503 | 8 | 217 | 9.7 | 11.3 | 0.00 | 0.00 | 0.00 | 81 | 1009.1 |
| 20260503183818 | 8 | 199 | 9.7 | 12.9 | 0.00 | 0.00 | 0.00 | 80 | 1009.1 |
| 20260503182703 | 9 | 210 | 11.3 | 16.1 | 0.00 | 0.00 | 0.00 | 79 | 1008.8 |
| 20260503181803 | 9 | 204 | 12.9 | 16.1 | 0.00 | 0.00 | 0.00 | 79 | 1008.9 |
| 20260503181118 | 10 | 211 | 14.5 | 16.1 | 0.00 | 0.00 | 0.00 | 78 | 1009.0 |
| 20260503180004 | 10 | 205 | 9.7 | 16.1 | 0.00 | 0.00 | 0.00 | 74 | 1008.7 |
| 20260503175403 | 10 | 200 | 9.7 | 12.9 | 0.00 | 0.00 | 0.00 | 74 | 1008.6 |
| 20260503174504 | 10 | 223 | 11.3 | 12.9 | 0.00 | 0.00 | 0.00 | 72 | 1008.4 |
| 20260503173817 | 11 | 225 | 11.3 | 12.9 | 0.00 | 0.00 | 0.00 | 72 | 1008.5 |
| 20260503172918 | 11 | 223 | 11.3 | 12.9 | 0.00 | 0.00 | 0.00 | 71 | 1008.3 |
| 20260503171803 | 12 | 207 | 9.7 | 12.9 | 0.00 | 0.00 | 0.00 | 65 | 1008.3 |
| 20260503171117 | 13 | 210 | 8.0 | 9.7 | 0.00 | 0.00 | 0.00 | 63 | 1008.2 |
| 20260503170217 | 13 | 180 | 6.4 | 8.0 | 0.00 | 0.00 | 0.00 | 60 | 1008.2 |
| 20260503150903 | 17 | 211 | 8.0 | 9.7 | 0.00 | 0.00 | 0.00 | 46 | 1008.7 |
| 20260503150218 | 17 | 212 | 8.0 | 9.7 | 0.00 | 0.00 | 0.00 | 47 | 1008.7 |
| 20260503130903 | 15 | 210 | 9.7 | 12.9 | 0.00 | 0.00 | 0.00 | 53 | 1009.2 |